User: anonymous   Login
Location: Unspecified
(0.0000°N, 0.0000°E)
Time: 16:01:19
(UTC+00:00)
Language:

Ayame 2 - Orbit

View from above orbital plane
View from above orbital plane
View from above satellite
View from above satellite

Ground track
Ground track

The orbit data is extracted from the following two-line orbital elements,

1 11715U 80018A   19011.95565446 -.00000083  00000-0  00000+0 0  9999
2 11715   7.5536 268.3589 4428536 220.0538 348.3730  1.75493586187402
Epoch (UTC): 11 January 2019 22:56:08
Eccentricity: 0.4428536
inclination: 7.5536°
perigee height: 9797 km
apogee height: 35512 km
right ascension of ascending node: 268.3589°
argument of perigee: 220.0538°
revolutions per day: 1.75493586
mean anomaly at epoch: 348.3730°
orbit number at epoch: 18740

The dashed part of the orbit path shows where the satellite is in the earth's shadow,  

DLR